Change the Weather History Date:

Saturday, March 17, 2012

  Actual Average Record
Temperature  
Mean Temperature 71 °F -  
Max Temperature 79 °F 76 °F 80 °F (1998)
Min Temperature 63 °F 59 °F 49 °F (1955)
Cooling Degree Days 6    
Growing Degree Days 21 (Base 50)    
Moisture  
Dew Point 59 °F    
Average Humidity 70    
Maximum Humidity 90    
Minimum Humidity 49    
Precipitation  
Precipitation 0.00 in - - ()
Sea Level Pressure  
Sea Level Pressure 30.14 in    
Wind  
Wind Speed 9 mph (North)    
Max Wind Speed 13 mph    
Max Gust Speed -    
Visibility 10 miles    
Events      
Averages and records for this station are not official NWS values.
T = Trace of Precipitation, MM = Missing Value Source: NWS Daily Summary

Daily Weather History Graph

Daily Weather History Graph

Search for Another Location

Airport or City:

Trip Planner

Search our weather history database for the weather conditions in past years. The results will help you decide how hot, cold, wet, or windy it might be!

Date:

Astronomy

Mar. 17, 2012 Rise Set
Actual Time 6:33 AM HST 6:38 PM HST
Civil Twilight 6:11 AM HST 7:00 PM HST
Nautical Twilight 5:46 AM HST 7:25 PM HST
Astronomical Twilight 5:20 AM HST 7:51 PM HST
Moon 3:10 AM HST (3/17) 2:43 PM HST (3/17)
Length of Visible Light 12h 48m
Length of Day
12h 04m
Waning Crescent, 21% of the Moon is Illuminated
Mar 17
Waning Crescent
Mar 22
New
Mar 30
First Quarter
Apr 6
Full
Apr 13
Last Quarter

Hourly Weather History & Observations

Time (HST) Temp. Dew Point Humidity Pressure Visibility Wind Dir Wind Speed Gust Speed Precip Events Conditions
12:56 AM 65.8 °F 61.0 °F 84% 30.15 in 10.0 mi NE 12.7 mph - N/A   Clear
1:56 AM 63.9 °F 59.0 °F 84% 30.14 in 10.0 mi NE 6.9 mph - N/A   Clear
2:56 AM 64.9 °F 59.9 °F 84% 30.13 in 10.0 mi NNE 11.5 mph - N/A   Clear
3:56 AM 63.9 °F 59.9 °F 87% 30.12 in 10.0 mi NNE 10.4 mph - N/A   Clear
4:56 AM 63.9 °F 59.0 °F 84% 30.13 in 10.0 mi NNE 10.4 mph - N/A   Clear
5:56 AM 64.9 °F 59.9 °F 84% 30.15 in 10.0 mi NNE 9.2 mph - N/A   Clear
6:56 AM 63.9 °F 57.9 °F 81% 30.16 in 10.0 mi ENE 5.8 mph - N/A   Clear
7:56 AM 70.0 °F 59.9 °F 70% 30.17 in 10.0 mi NNE 6.9 mph - N/A   Clear
8:56 AM 74.8 °F 57.9 °F 55% 30.18 in 10.0 mi Variable 4.6 mph - N/A   Clear
9:56 AM 75.9 °F 57.9 °F 54% 30.17 in 10.0 mi WSW 8.1 mph - N/A   Scattered Clouds
10:56 AM 74.8 °F 59.0 °F 58% 30.17 in 10.0 mi WSW 6.9 mph - N/A   Mostly Cloudy
11:14 AM 75.2 °F 59.0 °F 57% 30.21 in 10.0 mi Variable 6.9 mph - N/A   Scattered Clouds
11:56 AM 79.9 °F 59.0 °F 49% 30.14 in 10.0 mi Variable 5.8 mph - N/A   Clear
12:56 PM 75.9 °F 59.0 °F 56% 30.13 in 10.0 mi SW 8.1 mph - N/A   Mostly Cloudy
1:56 PM 79.0 °F 59.0 °F 50% 30.10 in 10.0 mi West 10.4 mph - N/A   Partly Cloudy
2:56 PM 79.9 °F 59.0 °F 49% 30.08 in 10.0 mi NW 10.4 mph - N/A   Mostly Cloudy
3:56 PM 77.0 °F 59.9 °F 55% 30.08 in 10.0 mi WSW 12.7 mph - N/A   Clear
4:56 PM 75.9 °F 59.9 °F 57% 30.09 in 10.0 mi SW 8.1 mph - N/A   Clear
8:56 PM 64.9 °F 61.0 °F 87% 30.12 in 10.0 mi NNE 5.8 mph - N/A   Clear
9:56 PM 63.9 °F 59.9 °F 87% 30.13 in 10.0 mi East 4.6 mph - N/A   Clear
10:56 PM 63.9 °F 59.9 °F 87% 30.12 in 10.0 mi NNE 4.6 mph - N/A   Clear
11:56 PM 63.0 °F 59.9 °F 90% 30.10 in 10.0 mi Calm Calm - N/A   Clear